Location: Unspecified
(0.0000°N, 0.0000°E)
Time: 03:42:53
(UTC+00:00)

Tiangong 2 - Pass Details

Date: 21 November 2017
Orbit: 386 x 390 km, 42.8° (Epoch: 12 December)

Event Time Altitude Azimuth Distance (km) Brightness Sun altitude
Rises 18:08:17 0° 283° (WNW) 2,254 6.0 -5.2°
Reaches altitude 10° 18:11:15 10° 252° (WSW) 1,403 5.8 -5.9°
Maximum altitude 18:12:43 13° 224° (SW) 1,258 4.8 -6.3°
Drops below altitude 10° 18:14:12 10° 196° (SSW) 1,404 4.5 -6.6°
Sets 18:17:11 0° 166° (SSE) 2,259 5.0 -7.3°
